GLOBALSTAR M041 [-]

Last updated on July 6, 2021, 3:36 p.m. UTC

1 25650U 99012B   21187.08719801 -.00000102  00000-0 -21472-3 0  9996
2 25650  52.0032  88.4418 0003485  16.2132 343.8816 11.96616741  5886
UTC
Height (km)
Latitude
Longitude
Inclination
Orbital Period
UTC large
Height (km)
Speed (km/s)
/
Latitude / Longitude
Inclination (degrees)
Orbital Period (minutes)
Azimuth
Elevation
Range (km)
Doppler Factor
iOS Compass Heading
iOS Angle